Ankeny, IA

10:51 PM CDT on May 24, 2017 (GMT -0500)
Ankeny Regional

Weather History for KIKV - November, 2013

Change the Weather History Date:

Saturday, November 23, 2013

  Actual Average (KDSM) Record (KDSM)
Temperature  
Mean Temperature 11 °F -  
Max Temperature 19 °F 42 °F 66 °F (1966)
Min Temperature 3 °F 25 °F 1 °F (1898)
Degree Days  
Heating Degree Days 54    
Moisture  
Dew Point 4 °F    
Average Humidity 68    
Maximum Humidity 85    
Minimum Humidity 53    
Precipitation  
Precipitation 0.00 in - - ()
Sea Level Pressure  
Sea Level Pressure 30.76 in    
Wind  
Wind Speed - (North)    
Max Wind Speed -    
Max Gust Speed -    
Visibility 10 miles    
Events Snow    
Averages and records for this station are not official NWS values.
T = Trace of Precipitation, MM = Missing Value Source: NWS Daily Summary

Daily Weather History Graph

Daily Weather History Graph

Search for Another Location

Airport or City:

Trip Planner

Search our weather history database for the weather conditions in past years. The results will help you decide how hot, cold, wet, or windy it might be!

Date:

Astronomy

Nov. 23, 2013 Rise Set
Actual Time 7:13 AM CST 4:47 PM CST
Civil Twilight 6:42 AM CST 5:18 PM CST
Nautical Twilight 6:08 AM CST 5:52 PM CST
Astronomical Twilight 5:35 AM CST 6:25 PM CST
Moon 10:19 PM CST (11/23) 11:28 AM CST (11/23)
Length of Visible Light 10h 35m
Length of Day
9h 34m
Waning Gibbous, 69% of the Moon is Illuminated
Nov 23
Waning Gibbous
Nov 25
Last Quarter
Dec 2
New
Dec 9
First Quarter
Dec 17
Full

Hourly Weather History & Observations

Time (CST) Temp. Dew Point Humidity Pressure Visibility Wind Dir Wind Speed Gust Speed Precip Events Conditions
12:15 AM 17.6 °F 8.6 °F 68% 30.59 in 10.0 mi North - - N/A   Clear
12:35 AM 19.4 °F 10.4 °F 68% 30.60 in 10.0 mi North - - N/A   Clear
12:55 AM 19.4 °F 10.4 °F 68% 30.61 in 10.0 mi North - - N/A Snow Light Snow
1:15 AM 17.6 °F 10.4 °F 73% 30.62 in 10.0 mi North - - N/A   Clear
1:35 AM 19.4 °F 10.4 °F 68% 30.62 in 10.0 mi North - - N/A   Clear
1:55 AM 19.4 °F 10.4 °F 68% 30.63 in 10.0 mi North - - N/A   Clear
2:15 AM 19.4 °F 10.4 °F 68% 30.64 in 10.0 mi North - - N/A   Clear
2:35 AM 19.4 °F 10.4 °F 68% 30.65 in 10.0 mi North - - N/A   Clear
2:55 AM 17.6 °F 8.6 °F 68% 30.65 in 10.0 mi North - - N/A   Clear
3:15 AM 17.6 °F 6.8 °F 63% 30.65 in 10.0 mi North - - N/A Snow Light Snow
3:35 AM 17.6 °F 6.8 °F 63% 30.65 in 10.0 mi North - - N/A Snow Light Snow
3:55 AM 15.8 °F 6.8 °F 68% 30.66 in 10.0 mi North - - N/A   Clear
4:15 AM 15.8 °F 5.0 °F 62% 30.67 in 10.0 mi North - - N/A   Clear
4:35 AM 14.0 °F 3.2 °F 62% 30.68 in 10.0 mi North - - N/A Snow Light Snow
4:55 AM 14.0 °F 3.2 °F 62% 30.69 in 10.0 mi North - - N/A Snow Light Snow
5:15 AM 14.0 °F 3.2 °F 62% 30.70 in 10.0 mi North - - N/A   Clear
5:35 AM 12.2 °F 3.2 °F 67% 30.71 in 10.0 mi North - - N/A Snow Light Snow
5:55 AM 12.2 °F 3.2 °F 67% 30.72 in 10.0 mi North - - N/A   Clear
6:15 AM 12.2 °F 3.2 °F 67% 30.72 in 10.0 mi North - - N/A Snow Light Snow
6:35 AM 10.4 °F 1.4 °F 67% 30.73 in 10.0 mi North - - N/A   Clear
6:55 AM 10.4 °F 1.4 °F 67% 30.75 in 10.0 mi North - - N/A Snow Light Snow
7:15 AM 10.4 °F 1.4 °F 67% 30.76 in 10.0 mi North - - N/A   Clear
7:35 AM 8.6 °F 1.4 °F 73% 30.77 in 10.0 mi North - - N/A   Clear
7:55 AM 8.6 °F 1.4 °F 73% 30.79 in 10.0 mi North - - N/A   Clear
8:15 AM 8.6 °F 1.4 °F 73% 30.79 in 10.0 mi North - - N/A Snow Light Snow
8:35 AM 10.4 °F 1.4 °F 67% 30.80 in 10.0 mi North - - N/A   Clear
8:55 AM 10.4 °F 3.2 °F 73% 30.81 in 10.0 mi North - - N/A Snow Light Snow
9:15 AM 10.4 °F 3.2 °F 73% 30.81 in 10.0 mi North - - N/A Snow Light Snow
9:35 AM 10.4 °F 3.2 °F 73% 30.82 in 10.0 mi North - - N/A   Partly Cloudy
9:55 AM 12.2 °F 3.2 °F 67% 30.83 in 10.0 mi North - - N/A   Scattered Clouds
10:15 AM 12.2 °F 3.2 °F 67% 30.83 in 10.0 mi North - - N/A   Mostly Cloudy
10:35 AM 12.2 °F 3.2 °F 67% 30.83 in 10.0 mi North - - N/A   Overcast
10:55 AM 14.0 °F 5.0 °F 67% 30.83 in 10.0 mi North - - N/A   Overcast
11:15 AM 14.0 °F 5.0 °F 67% 30.82 in 10.0 mi North - - N/A Snow Light Snow
11:35 AM 14.0 °F 5.0 °F 67% 30.82 in 10.0 mi North - - N/A Snow Light Snow
11:55 AM 14.0 °F 5.0 °F 67% 30.82 in 10.0 mi North - - N/A Snow Light Snow
12:15 PM 15.8 °F 5.0 °F 62% 30.82 in 10.0 mi North - - N/A Snow Light Snow
12:35 PM 15.8 °F 5.0 °F 62% 30.81 in 10.0 mi North - - N/A   Partly Cloudy
12:55 PM 15.8 °F 5.0 °F 62% 30.81 in 10.0 mi North - - N/A   Clear
1:15 PM 15.8 °F 5.0 °F 62% 30.81 in 10.0 mi North - - N/A   Clear
1:35 PM 15.8 °F 5.0 °F 62% 30.81 in 10.0 mi North - - N/A   Clear
1:55 PM 15.8 °F 5.0 °F 62% 30.81 in 10.0 mi North - - N/A   Clear
2:15 PM 17.6 °F 3.2 °F 53% 30.81 in 10.0 mi North - - N/A   Clear
2:35 PM 17.6 °F 3.2 °F 53% 30.81 in 10.0 mi North - - N/A Snow Light Snow
2:55 PM 17.6 °F 3.2 °F 53% 30.81 in 10.0 mi North - - N/A   Clear
3:15 PM 15.8 °F 3.2 °F 58% 30.81 in 10.0 mi North - - N/A   Clear
3:35 PM 15.8 °F 3.2 °F 58% 30.80 in 10.0 mi North - - N/A   Clear
3:55 PM 15.8 °F 3.2 °F 58% 30.81 in 10.0 mi North - - N/A   Clear
4:15 PM 15.8 °F 3.2 °F 58% 30.80 in 10.0 mi North - - N/A   Clear
4:35 PM 15.8 °F 3.2 °F 58% 30.81 in 10.0 mi North - - N/A   Clear
4:55 PM 15.8 °F 3.2 °F 58% 30.80 in 10.0 mi North - - N/A   Clear
5:15 PM 14.0 °F 3.2 °F 62% 30.80 in 10.0 mi North - - N/A   Clear
5:35 PM 14.0 °F 3.2 °F 62% 30.80 in 10.0 mi North - - N/A   Clear
5:55 PM 14.0 °F 3.2 °F 62% 30.80 in 10.0 mi North - - N/A   Clear
6:15 PM 12.2 °F 3.2 °F 67% 30.79 in 10.0 mi North - - N/A   Clear
6:35 PM 12.2 °F 1.4 °F 62% 30.79 in 10.0 mi North - - N/A   Clear
6:55 PM 10.4 °F 3.2 °F 73% 30.78 in 10.0 mi North - - N/A   Clear
7:15 PM 10.4 °F 1.4 °F 67% 30.79 in 10.0 mi North - - N/A   Clear
7:35 PM 8.6 °F 1.4 °F 73% 30.79 in 10.0 mi North - - N/A   Clear
7:55 PM 10.4 °F 1.4 °F 67% 30.79 in 10.0 mi North - - N/A   Clear
8:15 PM 10.4 °F 3.2 °F 73% 30.79 in 10.0 mi North - - N/A   Clear
8:35 PM 8.6 °F 1.4 °F 73% 30.79 in 10.0 mi North - - N/A   Clear
8:55 PM 6.8 °F 1.4 °F 79% 30.79 in 10.0 mi North - - N/A   Clear
9:15 PM 5.0 °F 1.4 °F 85% 30.79 in 10.0 mi North - - N/A   Clear
9:35 PM 5.0 °F -0.4 °F 78% 30.78 in 10.0 mi North - - N/A   Clear
9:55 PM 5.0 °F 1.4 °F 85% 30.78 in 10.0 mi North - - N/A   Clear
10:15 PM 5.0 °F 1.4 °F 85% 30.78 in 10.0 mi North - - N/A   Clear
10:35 PM 5.0 °F -0.4 °F 78% 30.77 in 10.0 mi North - - N/A   Clear
10:55 PM 3.2 °F -0.4 °F 85% 30.77 in 10.0 mi North - - N/A   Clear
11:15 PM 3.2 °F -0.4 °F 85% 30.77 in 10.0 mi North - - N/A   Clear
11:35 PM 3.2 °F -0.4 °F 85% 30.76 in 10.0 mi North - - N/A   Clear
11:55 PM 3.2 °F -0.4 °F 85% 30.76 in 10.0 mi North - - N/A   Clear